| time (UTC) | temp F | wind direction | speed MPH | gust MPH | rain 1hr in | rain 24hr in | rain mn in | humidity % | barometer mb |
| 20260903103006 | 85 | 69 | 15.0 | 21.0 | 0.00 | 0.00 | 0.00 | 59 | 1017.1 |
| 20260903101512 | 85 | 359 | 15.0 | 24.0 | 0.00 | 0.00 | 0.00 | 58 | 1017.1 |
| 20260903100007 | 85 | 17 | 13.0 | 19.0 | 0.00 | 0.00 | 0.00 | 55 | 1017.2 |
| 20260903094509 | 85 | 17 | 9.0 | 17.0 | 0.00 | 0.00 | 0.00 | 56 | 1017.4 |
| 20260903093105 | 85 | 33 | 13.0 | 18.0 | 0.00 | 0.00 | 0.00 | 55 | 1017.5 |
| 20260903091600 | 85 | 82 | 7.0 | 15.0 | 0.00 | 0.00 | 0.00 | 58 | 1017.5 |
| 20260903090056 | 84 | 86 | 8.0 | 15.0 | 0.00 | 0.00 | 0.00 | 60 | 1017.4 |
| 20260903084553 | 84 | 35 | 10.0 | 15.0 | 0.00 | 0.00 | 0.00 | 60 | 1017.3 |
| 20260903083052 | 83 | 32 | 9.0 | 17.0 | 0.00 | 0.00 | 0.00 | 63 | 1017.3 |
| 20260903081551 | 83 | 35 | 10.0 | 17.0 | 0.00 | 0.00 | 0.00 | 64 | 1017.2 |
| 20260903080048 | 83 | 15 | 8.0 | 15.0 | 0.00 | 0.00 | 0.00 | 64 | 1017.2 |
| 20260903074548 | 82 | 28 | 9.0 | 15.0 | 0.00 | 0.00 | 0.00 | 68 | 1017.1 |
| 20260903073044 | 81 | 18 | 7.0 | 14.0 | 0.00 | 0.00 | 0.00 | 69 | 1017.1 |
| 20260903071553 | 81 | 12 | 6.0 | 17.0 | 0.00 | 0.00 | 0.00 | 68 | 1017.0 |
| 20260903070042 | 81 | 28 | 8.0 | 15.0 | 0.00 | 0.00 | 0.00 | 66 | 1017.0 |
| 20260903064540 | 81 | 21 | 9.0 | 15.0 | 0.00 | 0.00 | 0.00 | 64 | 1017.0 |
| 20260903063037 | 81 | 8 | 2.0 | 10.0 | 0.00 | 0.00 | 0.00 | 63 | 1017.0 |
| 20260903061536 | 80 | 343 | 3.0 | 12.0 | 0.00 | 0.00 | 0.00 | 63 | 1017.1 |
| 20260903060036 | 79 | 309 | 4.0 | 12.0 | 0.00 | 0.00 | 0.00 | 63 | 1017.0 |
| 20260903054536 | 78 | 359 | 2.0 | 9.0 | 0.00 | 0.00 | 0.00 | 63 | 1017.0 |
| 20260903053035 | 78 | 338 | 3.0 | 8.0 | 0.00 | 0.00 | 0.00 | 64 | 1016.9 |
| 20260903051552 | 77 | 352 | 4.0 | 9.0 | 0.00 | 0.00 | 0.00 | 64 | 1016.9 |
| 20260903050032 | 77 | 347 | 4.0 | 8.0 | 0.00 | 0.00 | 0.00 | 65 | 1016.9 |
| 20260903044539 | 77 | 340 | 2.0 | 7.0 | 0.00 | 0.00 | 0.00 | 67 | 1016.8 |
| 20260903043107 | 77 | 344 | 2.0 | 5.0 | 0.00 | 0.00 | 0.00 | 68 | 1016.7 |
| 20260903041530 | 77 | 286 | 3.0 | 6.0 | 0.00 | 0.00 | 0.00 | 69 | 1016.5 |
| 20260903040028 | 77 | 324 | 1.0 | 5.0 | 0.00 | 0.00 | 0.00 | 70 | 1016.4 |
| 20260903034536 | 77 | 342 | 3.0 | 6.0 | 0.00 | 0.00 | 0.00 | 71 | 1016.5 |
| 20260903033024 | 78 | 301 | 2.0 | 5.0 | 0.00 | 0.00 | 0.00 | 73 | 1016.5 |
| 20260903031523 | 78 | 291 | 2.0 | 6.0 | 0.00 | 0.00 | 0.00 | 75 | 1016.6 |
| 20260903030023 | 78 | 328 | 5.0 | 10.0 | 0.00 | 0.00 | 0.00 | 76 | 1016.6 |
| 20260903024525 | 78 | 341 | 4.0 | 9.0 | 0.00 | 0.00 | 0.00 | 77 | 1016.7 |
| 20260903023020 | 78 | 348 | 4.0 | 11.0 | 0.00 | 0.00 | 0.00 | 78 | 1016.8 |
| 20260903021519 | 78 | 324 | 6.0 | 13.0 | 0.00 | 0.00 | 0.00 | 78 | 1016.9 |
| 20260903020023 | 78 | 16 | 5.0 | 13.0 | 0.00 | 0.00 | 0.00 | 77 | 1017.0 |
| 20260903014521 | 78 | 354 | 5.0 | 9.0 | 0.00 | 0.00 | 0.00 | 77 | 1017.1 |
| 20260903013016 | 78 | 352 | 5.0 | 8.0 | 0.00 | 0.00 | 0.00 | 76 | 1017.2 |
| 20260903011518 | 78 | 348 | 1.0 | 4.0 | 0.00 | 0.00 | 0.00 | 74 | 1017.1 |
| 20260903010015 | 78 | 324 | 2.0 | 4.0 | 0.00 | 0.00 | 0.00 | 74 | 1017.1 |
| 20260903004514 | 78 | 345 | 3.0 | 9.0 | 0.00 | 0.00 | 0.00 | 74 | 1017.1 |
| 20260903003013 | 78 | 344 | 0.0 | 0.0 | 0.00 | 0.00 | 0.00 | 74 | 1017.1 |
| 20260903001516 | 78 | 324 | 0.0 | 3.0 | 0.00 | 0.00 | 0.00 | 76 | 1017.0 |
| 20260903000012 | 78 | 295 | 0.0 | 2.0 | 0.00 | 0.00 | 0.00 | 78 | 1017.0 |
| 20260902234520 | 78 | 272 | 0.0 | 2.0 | 0.00 | 0.00 | 0.00 | 79 | 1017.0 |
| 20260902233011 | 78 | 272 | 0.0 | 5.0 | 0.00 | 0.00 | 0.00 | 79 | 1017.0 |
| 20260902231509 | 78 | 273 | 1.0 | 4.0 | 0.00 | 0.00 | 0.00 | 77 | 1017.1 |
| 20260902230009 | 78 | 287 | 0.0 | 6.0 | 0.00 | 0.00 | 0.00 | 77 | 1017.2 |
| 20260902224507 | 78 | 269 | 2.0 | 6.0 | 0.00 | 0.00 | 0.00 | 77 | 1017.1 |
| 20260902223018 | 78 | 217 | 0.0 | 4.0 | 0.00 | 0.00 | 0.00 | 76 | 1017.1 |
| 20260902221501 | 79 | 238 | 0.0 | 0.0 | 0.00 | 0.00 | 0.00 | 79 | 1017.0 |
| 20260902220059 | 80 | 309 | 0.0 | 0.0 | 0.00 | 0.00 | 0.00 | 80 | 1017.1 |
| 20260902214602 | 81 | 293 | 0.0 | 4.0 | 0.00 | 0.00 | 0.00 | 81 | 1017.2 |
| 20260902213106 | 81 | 316 | 0.0 | 2.0 | 0.00 | 0.00 | 0.00 | 81 | 1017.4 |
| 20260902211602 | 81 | 295 | 0.0 | 3.0 | 0.00 | 0.00 | 0.00 | 80 | 1017.4 |
| 20260902210058 | 82 | 341 | 3.0 | 6.0 | 0.00 | 0.00 | 0.00 | 81 | 1017.3 |
| 20260902204556 | 82 | 20 | 1.0 | 8.0 | 0.00 | 0.00 | 0.00 | 80 | 1017.3 |
| 20260902203100 | 83 | 13 | 4.0 | 9.0 | 0.00 | 0.00 | 0.00 | 80 | 1017.3 |
| 20260902201604 | 83 | 66 | 2.0 | 11.0 | 0.00 | 0.00 | 0.00 | 78 | 1017.2 |
| 20260902200130 | 83 | 35 | 4.0 | 8.0 | 0.00 | 0.00 | 0.00 | 78 | 1017.1 |
| 20260902194553 | 83 | 56 | 4.0 | 8.0 | 0.00 | 0.00 | 0.00 | 77 | 1017.1 |
| 20260902193053 | 83 | 54 | 2.0 | 7.0 | 0.00 | 0.00 | 0.00 | 76 | 1016.9 |
| 20260902191553 | 83 | 30 | 3.0 | 5.0 | 0.00 | 0.00 | 0.00 | 75 | 1016.9 |
| 20260902190100 | 83 | 25 | 2.0 | 6.0 | 0.00 | 0.00 | 0.00 | 74 | 1016.8 |
| 20260902184550 | 84 | 37 | 4.0 | 7.0 | 0.00 | 0.00 | 0.00 | 72 | 1016.7 |
| 20260902183053 | 85 | 25 | 1.0 | 3.0 | 0.00 | 0.00 | 0.00 | 66 | 1016.6 |
| 20260902181549 | 85 | 320 | 0.0 | 2.0 | 0.00 | 0.00 | 0.00 | 57 | 1016.4 |
| 20260902180049 | 85 | 296 | 0.0 | 2.0 | 0.00 | 0.00 | 0.00 | 58 | 1016.4 |
| 20260902174549 | 85 | 305 | 0.0 | 1.0 | 0.00 | 0.00 | 0.00 | 57 | 1016.3 |
| 20260902173048 | 85 | 162 | 0.0 | 1.0 | 0.00 | 0.00 | 0.00 | 57 | 1016.3 |
| 20260902171546 | 85 | 270 | 0.0 | 6.0 | 0.00 | 0.00 | 0.00 | 59 | 1016.5 |
| 20260902170044 | 85 | 228 | 2.0 | 5.0 | 0.00 | 0.00 | 0.00 | 60 | 1016.6 |
| 20260902164544 | 84 | 224 | 1.0 | 6.0 | 0.00 | 0.00 | 0.00 | 68 | 1016.7 |
| 20260902163042 | 84 | 170 | 1.0 | 4.0 | 0.00 | 0.00 | 0.00 | 72 | 1016.7 |
| 20260902161550 | 83 | 39 | 3.0 | 6.0 | 0.00 | 0.00 | 0.00 | 75 | 1016.7 |
| 20260902160041 | 83 | 66 | 6.0 | 8.0 | 0.00 | 0.00 | 0.00 | 75 | 1016.7 |
| 20260902154540 | 84 | 80 | 3.0 | 8.0 | 0.00 | 0.00 | 0.00 | 75 | 1016.8 |
| 20260902153040 | 84 | 89 | 8.0 | 12.0 | 0.00 | 0.00 | 0.00 | 75 | 1016.9 |
| 20260902151540 | 84 | 39 | 4.0 | 11.0 | 0.00 | 0.00 | 0.00 | 76 | 1017.1 |
| 20260902150039 | 84 | 73 | 5.0 | 11.0 | 0.00 | 0.00 | 0.00 | 76 | 1017.0 |
| 20260902144541 | 83 | 46 | 8.0 | 12.0 | 0.00 | 0.00 | 0.00 | 76 | 1016.8 |
| 20260902143035 | 84 | 116 | 7.0 | 13.0 | 0.00 | 0.00 | 0.00 | 75 | 1016.9 |
| 20260902141538 | 84 | 77 | 11.0 | 14.0 | 0.00 | 0.00 | 0.00 | 75 | 1017.0 |
| 20260902140038 | 84 | 54 | 9.0 | 13.0 | 0.00 | 0.00 | 0.00 | 74 | 1017.1 |
| 20260902134532 | 84 | 49 | 9.0 | 15.0 | 0.00 | 0.00 | 0.00 | 74 | 1017.4 |
| 20260902133031 | 84 | 83 | 10.0 | 14.0 | 0.00 | 0.00 | 0.00 | 73 | 1017.3 |
| 20260902131529 | 83 | 61 | 9.0 | 15.0 | 0.00 | 0.00 | 0.00 | 75 | 1017.3 |
| 20260902130029 | 84 | 70 | 8.0 | 16.0 | 0.00 | 0.00 | 0.00 | 76 | 1017.5 |
| 20260902124528 | 84 | 57 | 10.0 | 14.0 | 0.00 | 0.00 | 0.00 | 76 | 1017.7 |
| 20260902123128 | 84 | 71 | 10.0 | 14.0 | 0.00 | 0.00 | 0.00 | 76 | 1017.8 |
| 20260902121526 | 83 | 45 | 8.0 | 13.0 | 0.00 | 0.00 | 0.00 | 77 | 1018.0 |
| 20260902120025 | 83 | 82 | 7.0 | 13.0 | 0.00 | 0.00 | 0.00 | 79 | 1018.1 |
| 20260902114528 | 83 | 69 | 7.0 | 12.0 | 0.00 | 0.00 | 0.00 | 78 | 1018.2 |
| 20260902113026 | 83 | 43 | 8.0 | 12.0 | 0.00 | 0.00 | 0.00 | 78 | 1018.2 |
| 20260902111535 | 83 | 65 | 7.0 | 13.0 | 0.00 | 0.00 | 0.00 | 78 | 1018.4 |
| 20260902110021 | 83 | 75 | 10.0 | 15.0 | 0.00 | 0.00 | 0.00 | 77 | 1018.4 |
| 20260902104535 | 83 | 35 | 9.0 | 14.0 | 0.00 | 0.00 | 0.00 | 76 | 1018.5 |